Year,Month,Day,Hour,Minute,Value (Times are PST for insolation in W/m^2)
2011,08,31,00,00,0.00
2011,08,31,00,01,0.00
2011,08,31,00,02,0.00
2011,08,31,00,03,0.00
2011,08,31,00,04,0.00
2011,08,31,00,05,0.00
2011,08,31,00,06,0.00
2011,08,31,00,07,0.00
2011,08,31,00,08,0.00
2011,08,31,00,09,0.00
2011,08,31,00,10,0.00
2011,08,31,00,11,0.00
2011,08,31,00,12,0.00
2011,08,31,00,13,0.00
2011,08,31,00,14,0.00
2011,08,31,00,15,0.00
2011,08,31,00,16,0.00
2011,08,31,00,17,0.00
2011,08,31,00,18,0.00
2011,08,31,00,19,0.00
2011,08,31,00,20,0.00
2011,08,31,00,21,0.00
2011,08,31,00,22,0.00
2011,08,31,00,23,0.00
2011,08,31,00,24,0.00
2011,08,31,00,25,0.00
2011,08,31,00,26,0.00
2011,08,31,00,27,0.00
2011,08,31,00,28,0.00
2011,08,31,00,29,0.00
2011,08,31,00,30,0.00
2011,08,31,00,31,0.00
2011,08,31,00,32,0.00
2011,08,31,00,33,0.00
2011,08,31,00,34,0.00
2011,08,31,00,35,0.00
2011,08,31,00,36,0.00
2011,08,31,00,37,0.00
2011,08,31,00,38,0.00
2011,08,31,00,39,0.00
2011,08,31,00,40,0.00
2011,08,31,00,41,0.00
2011,08,31,00,42,0.00
2011,08,31,00,43,0.00
2011,08,31,00,44,0.00
2011,08,31,00,45,0.00
2011,08,31,00,46,0.00
2011,08,31,00,47,0.00
2011,08,31,00,48,0.00
2011,08,31,00,49,0.00
2011,08,31,00,50,0.00
2011,08,31,00,51,0.00
2011,08,31,00,52,0.00
2011,08,31,00,53,0.00
2011,08,31,00,54,0.00
2011,08,31,00,55,0.00
2011,08,31,00,56,0.00
2011,08,31,00,57,0.00
2011,08,31,00,58,0.00
2011,08,31,00,59,0.00
2011,08,31,01,00,0.00
2011,08,31,01,01,0.00
2011,08,31,01,02,0.00
2011,08,31,01,03,0.00
2011,08,31,01,04,0.00
2011,08,31,01,05,0.00
2011,08,31,01,06,0.00
2011,08,31,01,07,0.00
2011,08,31,01,08,0.00
2011,08,31,01,09,0.00
2011,08,31,01,10,0.00
2011,08,31,01,11,0.00
2011,08,31,01,12,0.00
2011,08,31,01,13,0.00
2011,08,31,01,14,0.00
2011,08,31,01,15,0.00
2011,08,31,01,16,0.00
2011,08,31,01,17,0.00
2011,08,31,01,18,0.00
2011,08,31,01,19,0.00
2011,08,31,01,20,0.00
2011,08,31,01,21,0.00
2011,08,31,01,22,0.00
2011,08,31,01,23,0.00
2011,08,31,01,24,0.00
2011,08,31,01,25,0.00
2011,08,31,01,26,0.00
2011,08,31,01,27,0.00
2011,08,31,01,28,0.00
2011,08,31,01,29,0.00
2011,08,31,01,30,0.00
2011,08,31,01,31,0.00
2011,08,31,01,32,0.00
2011,08,31,01,33,0.00
2011,08,31,01,34,0.00
2011,08,31,01,35,0.00
2011,08,31,01,36,0.00
2011,08,31,01,37,0.00
2011,08,31,01,38,0.00
2011,08,31,01,39,0.00
2011,08,31,01,40,0.00
2011,08,31,01,41,0.00
2011,08,31,01,42,0.00
2011,08,31,01,43,0.00
2011,08,31,01,44,0.00
2011,08,31,01,45,0.00
2011,08,31,01,46,0.00
2011,08,31,01,47,0.00
2011,08,31,01,48,0.00
2011,08,31,01,49,0.00
2011,08,31,01,50,0.00
2011,08,31,01,51,0.00
2011,08,31,01,52,0.00
2011,08,31,01,53,0.00
2011,08,31,01,54,0.00
2011,08,31,01,55,0.00
2011,08,31,01,56,0.00
2011,08,31,01,57,0.00
2011,08,31,01,58,0.00
2011,08,31,01,59,0.00
2011,08,31,02,00,0.00
2011,08,31,02,01,0.00
2011,08,31,02,02,0.00
2011,08,31,02,03,0.00
2011,08,31,02,04,0.00
2011,08,31,02,05,0.00
2011,08,31,02,06,0.00
2011,08,31,02,07,0.00
2011,08,31,02,08,0.00
2011,08,31,02,09,0.00
2011,08,31,02,10,0.00
2011,08,31,02,11,0.00
2011,08,31,02,12,0.00
2011,08,31,02,13,0.00
2011,08,31,02,14,0.00
2011,08,31,02,15,0.00
2011,08,31,02,16,0.00
2011,08,31,02,17,0.00
2011,08,31,02,18,0.00
2011,08,31,02,19,0.00
2011,08,31,02,20,0.00
2011,08,31,02,21,0.00
2011,08,31,02,22,0.00
2011,08,31,02,23,0.00
2011,08,31,02,24,0.00
2011,08,31,02,25,0.00
2011,08,31,02,26,0.00
2011,08,31,02,27,0.00
2011,08,31,02,28,0.00
2011,08,31,02,29,0.00
2011,08,31,02,30,0.00
2011,08,31,02,31,0.00
2011,08,31,02,32,0.00
2011,08,31,02,33,0.00
2011,08,31,02,34,0.00
2011,08,31,02,35,0.00
2011,08,31,02,36,0.00
2011,08,31,02,37,0.00
2011,08,31,02,38,0.00
2011,08,31,02,39,0.00
2011,08,31,02,40,0.00
2011,08,31,02,41,0.00
2011,08,31,02,42,0.00
2011,08,31,02,43,0.00
2011,08,31,02,44,0.00
2011,08,31,02,45,0.00
2011,08,31,02,46,0.00
2011,08,31,02,47,0.00
2011,08,31,02,48,0.00
2011,08,31,02,49,0.00
2011,08,31,02,50,0.00
2011,08,31,02,51,0.00
2011,08,31,02,52,0.00
2011,08,31,02,53,0.00
2011,08,31,02,54,0.00
2011,08,31,02,55,0.00
2011,08,31,02,56,0.00
2011,08,31,02,57,0.00
2011,08,31,02,58,0.00
2011,08,31,02,59,0.00
2011,08,31,03,00,0.00
2011,08,31,03,01,0.00
2011,08,31,03,02,0.00
2011,08,31,03,03,0.00
2011,08,31,03,04,0.00
2011,08,31,03,05,0.00
2011,08,31,03,06,0.00
2011,08,31,03,07,0.00
2011,08,31,03,08,0.00
2011,08,31,03,09,0.00
2011,08,31,03,10,0.00
2011,08,31,03,11,0.00
2011,08,31,03,12,0.00
2011,08,31,03,13,0.00
2011,08,31,03,14,0.00
2011,08,31,03,15,0.00
2011,08,31,03,16,0.00
2011,08,31,03,17,0.00
2011,08,31,03,18,0.00
2011,08,31,03,19,0.00
2011,08,31,03,20,0.00
2011,08,31,03,21,0.00
2011,08,31,03,22,0.00
2011,08,31,03,23,0.00
2011,08,31,03,24,0.00
2011,08,31,03,25,0.00
2011,08,31,03,26,0.00
2011,08,31,03,27,0.00
2011,08,31,03,28,0.00
2011,08,31,03,29,0.00
2011,08,31,03,30,0.00
2011,08,31,03,31,0.00
2011,08,31,03,32,0.00
2011,08,31,03,33,0.00
2011,08,31,03,34,0.00
2011,08,31,03,35,0.00
2011,08,31,03,36,0.00
2011,08,31,03,37,0.00
2011,08,31,03,38,0.00
2011,08,31,03,39,0.00
2011,08,31,03,40,0.00
2011,08,31,03,41,0.00
2011,08,31,03,42,0.00
2011,08,31,03,43,0.00
2011,08,31,03,44,0.00
2011,08,31,03,45,0.00
2011,08,31,03,46,0.00
2011,08,31,03,47,0.00
2011,08,31,03,48,0.00
2011,08,31,03,49,0.00
2011,08,31,03,50,0.00
2011,08,31,03,51,0.00
2011,08,31,03,52,0.00
2011,08,31,03,53,0.00
2011,08,31,03,54,0.00
2011,08,31,03,55,0.00
2011,08,31,03,56,0.00
2011,08,31,03,57,0.00
2011,08,31,03,58,0.00
2011,08,31,03,59,0.00
2011,08,31,04,00,0.00
2011,08,31,04,01,0.00
2011,08,31,04,02,0.00
2011,08,31,04,03,0.00
2011,08,31,04,04,0.00
2011,08,31,04,05,0.00
2011,08,31,04,06,0.00
2011,08,31,04,07,0.00
2011,08,31,04,08,0.00
2011,08,31,04,09,0.00
2011,08,31,04,10,0.00
2011,08,31,04,11,0.00
2011,08,31,04,12,0.00
2011,08,31,04,13,0.00
2011,08,31,04,14,0.00
2011,08,31,04,15,0.00
2011,08,31,04,16,0.00
2011,08,31,04,17,0.00
2011,08,31,04,18,0.00
2011,08,31,04,19,0.00
2011,08,31,04,20,0.00
2011,08,31,04,21,0.00
2011,08,31,04,22,0.00
2011,08,31,04,23,0.00
2011,08,31,04,24,0.00
2011,08,31,04,25,0.00
2011,08,31,04,26,0.00
2011,08,31,04,27,0.00
2011,08,31,04,28,0.00
2011,08,31,04,29,0.00
2011,08,31,04,30,0.00
2011,08,31,04,31,0.00
2011,08,31,04,32,0.00
2011,08,31,04,33,0.00
2011,08,31,04,34,0.00
2011,08,31,04,35,0.00
2011,08,31,04,36,0.00
2011,08,31,04,37,0.00
2011,08,31,04,38,0.00
2011,08,31,04,39,0.00
2011,08,31,04,40,0.00
2011,08,31,04,41,0.00
2011,08,31,04,42,0.00
2011,08,31,04,43,0.00
2011,08,31,04,44,0.00
2011,08,31,04,45,0.00
2011,08,31,04,46,0.00
2011,08,31,04,47,0.00
2011,08,31,04,48,0.00
2011,08,31,04,49,0.00
2011,08,31,04,50,0.00
2011,08,31,04,51,0.00
2011,08,31,04,52,0.00
2011,08,31,04,53,0.00
2011,08,31,04,54,0.00
2011,08,31,04,55,0.00
2011,08,31,04,56,0.00
2011,08,31,04,57,0.00
2011,08,31,04,58,0.00
2011,08,31,04,59,0.00
2011,08,31,05,00,0.00
2011,08,31,05,01,0.00
2011,08,31,05,02,0.00
2011,08,31,05,03,0.00
2011,08,31,05,04,0.00
2011,08,31,05,05,0.00
2011,08,31,05,06,0.00
2011,08,31,05,07,0.00
2011,08,31,05,08,0.00
2011,08,31,05,09,0.00
2011,08,31,05,10,0.00
2011,08,31,05,11,0.00
2011,08,31,05,12,0.00
2011,08,31,05,13,0.00
2011,08,31,05,14,0.00
2011,08,31,05,15,0.00
2011,08,31,05,16,0.00
2011,08,31,05,17,0.00
2011,08,31,05,18,0.00
2011,08,31,05,19,0.00
2011,08,31,05,20,0.00
2011,08,31,05,21,0.00
2011,08,31,05,22,0.00
2011,08,31,05,23,0.00
2011,08,31,05,24,0.00
2011,08,31,05,25,0.00
2011,08,31,05,26,0.00
2011,08,31,05,27,0.00
2011,08,31,05,28,0.00
2011,08,31,05,29,0.00
2011,08,31,05,30,0.00
2011,08,31,05,31,0.00
2011,08,31,05,32,0.00
2011,08,31,05,33,0.00
2011,08,31,05,34,0.00
2011,08,31,05,35,0.00
2011,08,31,05,36,0.00
2011,08,31,05,37,0.00
2011,08,31,05,38,0.00
2011,08,31,05,39,0.00
2011,08,31,05,40,0.00
2011,08,31,05,41,0.00
2011,08,31,05,42,0.00
2011,08,31,05,43,0.00
2011,08,31,05,44,0.00
2011,08,31,05,45,0.00
2011,08,31,05,46,0.00
2011,08,31,05,47,0.00
2011,08,31,05,48,0.00
2011,08,31,05,49,0.00
2011,08,31,05,50,0.00
2011,08,31,05,51,0.00
2011,08,31,05,52,0.00
2011,08,31,05,53,0.00
2011,08,31,05,54,0.00
2011,08,31,05,55,0.00
2011,08,31,05,56,0.00
2011,08,31,05,57,0.00
2011,08,31,05,58,0.00
2011,08,31,05,59,0.00
2011,08,31,06,00,0.00
2011,08,31,06,01,0.00
2011,08,31,06,02,0.00
2011,08,31,06,03,0.00
2011,08,31,06,04,0.00
2011,08,31,06,05,0.00
2011,08,31,06,06,0.00
2011,08,31,06,07,0.00
2011,08,31,06,08,0.00
2011,08,31,06,09,0.00
2011,08,31,06,10,0.00
2011,08,31,06,11,0.00
2011,08,31,06,12,0.00
2011,08,31,06,13,0.00
2011,08,31,06,14,0.00
2011,08,31,06,15,0.00
2011,08,31,06,16,0.00
2011,08,31,06,17,0.00
2011,08,31,06,18,0.00
2011,08,31,06,19,0.00
2011,08,31,06,20,0.00
2011,08,31,06,21,0.00
2011,08,31,06,22,0.00
2011,08,31,06,23,0.00
2011,08,31,06,24,0.00
2011,08,31,06,25,0.00
2011,08,31,06,26,3.70
2011,08,31,06,27,5.00
2011,08,31,06,28,5.00
2011,08,31,06,29,5.00
2011,08,31,06,30,5.00
2011,08,31,06,31,6.00
2011,08,31,06,32,7.00
2011,08,31,06,33,7.00
2011,08,31,06,34,7.00
2011,08,31,06,35,9.00
2011,08,31,06,36,9.00
2011,08,31,06,37,9.00
2011,08,31,06,38,9.90
2011,08,31,06,39,11.00
2011,08,31,06,40,11.00
2011,08,31,06,41,11.90
2011,08,31,06,42,12.00
2011,08,31,06,43,12.50
2011,08,31,06,44,14.00
2011,08,31,06,45,14.00
2011,08,31,06,46,15.30
2011,08,31,06,47,16.00
2011,08,31,06,48,16.00
2011,08,31,06,49,17.90
2011,08,31,06,50,18.00
2011,08,31,06,51,18.00
2011,08,31,06,52,18.00
2011,08,31,06,53,18.60
2011,08,31,06,54,19.00
2011,08,31,06,55,19.00
2011,08,31,06,56,19.20
2011,08,31,06,57,21.50
2011,08,31,06,58,24.10
2011,08,31,06,59,25.50
2011,08,31,07,00,25.00
2011,08,31,07,01,25.00
2011,08,31,07,02,25.00
2011,08,31,07,03,25.80
2011,08,31,07,04,34.90
2011,08,31,07,05,42.70
2011,08,31,07,06,43.00
2011,08,31,07,07,42.00
2011,08,31,07,08,45.80
2011,08,31,07,09,53.30
2011,08,31,07,10,57.50
2011,08,31,07,11,49.80
2011,08,31,07,12,37.20
2011,08,31,07,13,31.50
2011,08,31,07,14,30.00
2011,08,31,07,15,30.00
2011,08,31,07,16,30.00
2011,08,31,07,17,30.20
2011,08,31,07,18,32.00
2011,08,31,07,19,32.00
2011,08,31,07,20,32.50
2011,08,31,07,21,33.00
2011,08,31,07,22,33.00
2011,08,31,07,23,33.00
2011,08,31,07,24,34.90
2011,08,31,07,25,35.00
2011,08,31,07,26,35.00
2011,08,31,07,27,36.00
2011,08,31,07,28,37.00
2011,08,31,07,29,38.50
2011,08,31,07,30,39.00
2011,08,31,07,31,46.80
2011,08,31,07,32,51.50
2011,08,31,07,33,47.70
2011,08,31,07,34,73.40
2011,08,31,07,35,106.40
2011,08,31,07,36,116.80
2011,08,31,07,37,120.60
2011,08,31,07,38,123.20
2011,08,31,07,39,125.80
2011,08,31,07,40,128.70
2011,08,31,07,41,131.00
2011,08,31,07,42,133.30
2011,08,31,07,43,134.70
2011,08,31,07,44,136.80
2011,08,31,07,45,139.20
2011,08,31,07,46,141.60
2011,08,31,07,47,144.70
2011,08,31,07,48,147.00
2011,08,31,07,49,148.60
2011,08,31,07,50,150.50
2011,08,31,07,51,152.80
2011,08,31,07,52,155.10
2011,08,31,07,53,156.40
2011,08,31,07,54,159.50
2011,08,31,07,55,162.50
2011,08,31,07,56,164.20
2011,08,31,07,57,166.50
2011,08,31,07,58,168.80
2011,08,31,07,59,172.10
2011,08,31,08,00,174.50
2011,08,31,08,01,176.80
2011,08,31,08,02,179.60
2011,08,31,08,03,182.30
2011,08,31,08,04,183.00
2011,08,31,08,05,185.70
2011,08,31,08,06,188.30
2011,08,31,08,07,190.80
2011,08,31,08,08,193.70
2011,08,31,08,09,195.90
2011,08,31,08,10,198.90
2011,08,31,08,11,201.50
2011,08,31,08,12,205.40
2011,08,31,08,13,207.40
2011,08,31,08,14,211.70
2011,08,31,08,15,216.20
2011,08,31,08,16,222.50
2011,08,31,08,17,227.40
2011,08,31,08,18,232.80
2011,08,31,08,19,238.50
2011,08,31,08,20,244.60
2011,08,31,08,21,250.80
2011,08,31,08,22,255.00
2011,08,31,08,23,261.20
2011,08,31,08,24,268.50
2011,08,31,08,25,276.20
2011,08,31,08,26,286.10
2011,08,31,08,27,294.70
2011,08,31,08,28,302.30
2011,08,31,08,29,306.00
2011,08,31,08,30,312.60
2011,08,31,08,31,325.40
2011,08,31,08,32,335.30
2011,08,31,08,33,338.90
2011,08,31,08,34,241.80
2011,08,31,08,35,220.50
2011,08,31,08,36,207.40
2011,08,31,08,37,205.10
2011,08,31,08,38,244.00
2011,08,31,08,39,332.50
2011,08,31,08,40,290.80
2011,08,31,08,41,283.00
2011,08,31,08,42,267.20
2011,08,31,08,43,223.70
2011,08,31,08,44,226.70
2011,08,31,08,45,240.30
2011,08,31,08,46,279.70
2011,08,31,08,47,263.20
2011,08,31,08,48,260.00
2011,08,31,08,49,257.10
2011,08,31,08,50,239.40
2011,08,31,08,51,224.00
2011,08,31,08,52,221.00
2011,08,31,08,53,251.10
2011,08,31,08,54,220.80
2011,08,31,08,55,249.00
2011,08,31,08,56,436.00
2011,08,31,08,57,369.50
2011,08,31,08,58,226.50
2011,08,31,08,59,207.00
2011,08,31,09,00,207.00
2011,08,31,09,01,273.60
2011,08,31,09,02,298.40
2011,08,31,09,03,446.00
2011,08,31,09,04,345.10
2011,08,31,09,05,172.00
2011,08,31,09,06,161.60
2011,08,31,09,07,184.70
2011,08,31,09,08,195.00
2011,08,31,09,09,343.60
2011,08,31,09,10,405.80
2011,08,31,09,11,395.90
2011,08,31,09,12,387.50
2011,08,31,09,13,383.70
2011,08,31,09,14,381.50
2011,08,31,09,15,381.00
2011,08,31,09,16,385.00
2011,08,31,09,17,385.50
2011,08,31,09,18,388.10
2011,08,31,09,19,391.00
2011,08,31,09,20,393.30
2011,08,31,09,21,395.50
2011,08,31,09,22,398.70
2011,08,31,09,23,401.30
2011,08,31,09,24,404.40
2011,08,31,09,25,406.00
2011,08,31,09,26,408.00
2011,08,31,09,27,410.60
2011,08,31,09,28,414.00
2011,08,31,09,29,416.80
2011,08,31,09,30,417.30
2011,08,31,09,31,420.50
2011,08,31,09,32,423.20
2011,08,31,09,33,426.10
2011,08,31,09,34,428.20
2011,08,31,09,35,430.50
2011,08,31,09,36,431.90
2011,08,31,09,37,436.00
2011,08,31,09,38,438.20
2011,08,31,09,39,439.80
2011,08,31,09,40,441.90
2011,08,31,09,41,444.20
2011,08,31,09,42,447.20
2011,08,31,09,43,451.60
2011,08,31,09,44,454.10
2011,08,31,09,45,456.00
2011,08,31,09,46,459.00
2011,08,31,09,47,460.50
2011,08,31,09,48,464.60
2011,08,31,09,49,467.50
2011,08,31,09,50,468.90
2011,08,31,09,51,471.30
2011,08,31,09,52,474.20
2011,08,31,09,53,478.00
2011,08,31,09,54,479.90
2011,08,31,09,55,482.00
2011,08,31,09,56,482.70
2011,08,31,09,57,483.00
2011,08,31,09,58,489.00
2011,08,31,09,59,489.60
2011,08,31,10,00,493.40
2011,08,31,10,01,496.50
2011,08,31,10,02,499.50
2011,08,31,10,03,503.20
2011,08,31,10,04,505.80
2011,08,31,10,05,510.00
2011,08,31,10,06,508.50
2011,08,31,10,07,501.20
2011,08,31,10,08,499.50
2011,08,31,10,09,508.40
2011,08,31,10,10,517.20
2011,08,31,10,11,519.80
2011,08,31,10,12,522.00
2011,08,31,10,13,523.50
2011,08,31,10,14,532.60
2011,08,31,10,15,541.30
2011,08,31,10,16,550.80
2011,08,31,10,17,554.00
2011,08,31,10,18,552.20
2011,08,31,10,19,544.00
2011,08,31,10,20,587.50
2011,08,31,10,21,586.30
2011,08,31,10,22,584.40
2011,08,31,10,23,591.20
2011,08,31,10,24,600.60
2011,08,31,10,25,605.50
2011,08,31,10,26,593.10
2011,08,31,10,27,556.50
2011,08,31,10,28,578.20
2011,08,31,10,29,580.00
2011,08,31,10,30,591.40
2011,08,31,10,31,585.60
2011,08,31,10,32,540.80
2011,08,31,10,33,575.50
2011,08,31,10,34,568.80
2011,08,31,10,35,590.90
2011,08,31,10,36,588.10
2011,08,31,10,37,567.80
2011,08,31,10,38,559.50
2011,08,31,10,39,578.80
2011,08,31,10,40,577.70
2011,08,31,10,41,579.00
2011,08,31,10,42,592.10
2011,08,31,10,43,595.00
2011,08,31,10,44,596.00
2011,08,31,10,45,594.50
2011,08,31,10,46,600.00
2011,08,31,10,47,598.90
2011,08,31,10,48,598.80
2011,08,31,10,49,601.80
2011,08,31,10,50,602.10
2011,08,31,10,51,602.20
2011,08,31,10,52,603.00
2011,08,31,10,53,605.70
2011,08,31,10,54,603.20
2011,08,31,10,55,605.80
2011,08,31,10,56,608.70
2011,08,31,10,57,610.00
2011,08,31,10,58,612.00
2011,08,31,10,59,614.50
2011,08,31,11,00,616.70
2011,08,31,11,01,619.20
2011,08,31,11,02,621.00
2011,08,31,11,03,621.00
2011,08,31,11,04,621.50
2011,08,31,11,05,624.60
2011,08,31,11,06,627.50
2011,08,31,11,07,628.90
2011,08,31,11,08,631.00
2011,08,31,11,09,631.40
2011,08,31,11,10,633.70
2011,08,31,11,11,636.40
2011,08,31,11,12,639.30
2011,08,31,11,13,640.00
2011,08,31,11,14,641.80
2011,08,31,11,15,642.00
2011,08,31,11,16,642.20
2011,08,31,11,17,643.80
2011,08,31,11,18,645.00
2011,08,31,11,19,645.00
2011,08,31,11,20,643.50
2011,08,31,11,21,646.60
2011,08,31,11,22,647.30
2011,08,31,11,23,648.60
2011,08,31,11,24,648.80
2011,08,31,11,25,653.00
2011,08,31,11,26,655.30
2011,08,31,11,27,659.70
2011,08,31,11,28,661.00
2011,08,31,11,29,666.20
2011,08,31,11,30,668.80
2011,08,31,11,31,672.50
2011,08,31,11,32,675.00
2011,08,31,11,33,678.20
2011,08,31,11,34,681.50
2011,08,31,11,35,685.60
2011,08,31,11,36,687.00
2011,08,31,11,37,590.80
2011,08,31,11,38,301.60
2011,08,31,11,39,301.50
2011,08,31,11,40,300.10
2011,08,31,11,41,301.20
2011,08,31,11,42,308.40
2011,08,31,11,43,322.80
2011,08,31,11,44,330.50
2011,08,31,11,45,338.30
2011,08,31,11,46,332.00
2011,08,31,11,47,330.00
2011,08,31,11,48,326.30
2011,08,31,11,49,325.00
2011,08,31,11,50,255.00
2011,08,31,11,51,341.20
2011,08,31,11,52,686.00
2011,08,31,11,53,686.50
2011,08,31,11,54,688.20
2011,08,31,11,55,689.00
2011,08,31,11,56,695.30
2011,08,31,11,57,694.00
2011,08,31,11,58,694.40
2011,08,31,11,59,696.00
2011,08,31,12,00,695.10
2011,08,31,12,01,696.50
2011,08,31,12,02,695.00
2011,08,31,12,03,699.40
2011,08,31,12,04,701.20
2011,08,31,12,05,703.00
2011,08,31,12,06,703.00
2011,08,31,12,07,704.00
2011,08,31,12,08,705.00
2011,08,31,12,09,706.50
2011,08,31,12,10,707.90
2011,08,31,12,11,709.80
2011,08,31,12,12,709.60
2011,08,31,12,13,713.30
2011,08,31,12,14,712.00
2011,08,31,12,15,713.80
2011,08,31,12,16,714.20
2011,08,31,12,17,716.70
2011,08,31,12,18,717.30
2011,08,31,12,19,718.00
2011,08,31,12,20,717.10
2011,08,31,12,21,720.00
2011,08,31,12,22,720.80
2011,08,31,12,23,721.20
2011,08,31,12,24,721.90
2011,08,31,12,25,719.50
2011,08,31,12,26,724.00
2011,08,31,12,27,723.30
2011,08,31,12,28,721.50
2011,08,31,12,29,721.60
2011,08,31,12,30,723.50
2011,08,31,12,31,722.20
2011,08,31,12,32,728.50
2011,08,31,12,33,724.50
2011,08,31,12,34,727.10
2011,08,31,12,35,730.00
2011,08,31,12,36,729.70
2011,08,31,12,37,729.00
2011,08,31,12,38,730.80
2011,08,31,12,39,731.00
2011,08,31,12,40,732.10
2011,08,31,12,41,736.10
2011,08,31,12,42,738.00
2011,08,31,12,43,738.00
2011,08,31,12,44,742.50
2011,08,31,12,45,744.00
2011,08,31,12,46,744.00
2011,08,31,12,47,743.50
2011,08,31,12,48,740.50
2011,08,31,12,49,740.00
2011,08,31,12,50,743.30
2011,08,31,12,51,744.00
2011,08,31,12,52,742.20
2011,08,31,12,53,737.00
2011,08,31,12,54,737.20
2011,08,31,12,55,738.00
2011,08,31,12,56,740.00
2011,08,31,12,57,740.80
2011,08,31,12,58,740.00
2011,08,31,12,59,740.00
2011,08,31,13,00,738.20
2011,08,31,13,01,740.00
2011,08,31,13,02,740.70
2011,08,31,13,03,742.00
2011,08,31,13,04,740.80
2011,08,31,13,05,741.50
2011,08,31,13,06,740.30
2011,08,31,13,07,744.00
2011,08,31,13,08,744.20
2011,08,31,13,09,743.20
2011,08,31,13,10,712.40
2011,08,31,13,11,695.30
2011,08,31,13,12,738.40
2011,08,31,13,13,751.00
2011,08,31,13,14,747.00
2011,08,31,13,15,744.60
2011,08,31,13,16,737.60
2011,08,31,13,17,736.00
2011,08,31,13,18,735.00
2011,08,31,13,19,729.60
2011,08,31,13,20,726.20
2011,08,31,13,21,731.00
2011,08,31,13,22,732.40
2011,08,31,13,23,734.60
2011,08,31,13,24,734.20
2011,08,31,13,25,731.60
2011,08,31,13,26,728.70
2011,08,31,13,27,734.10
2011,08,31,13,28,733.20
2011,08,31,13,29,735.50
2011,08,31,13,30,737.00
2011,08,31,13,31,738.40
2011,08,31,13,32,734.20
2011,08,31,13,33,718.50
2011,08,31,13,34,729.30
2011,08,31,13,35,730.70
2011,08,31,13,36,729.00
2011,08,31,13,37,731.30
2011,08,31,13,38,736.50
2011,08,31,13,39,739.30
2011,08,31,13,40,745.00
2011,08,31,13,41,748.80
2011,08,31,13,42,750.90
2011,08,31,13,43,720.80
2011,08,31,13,44,759.50
2011,08,31,13,45,754.00
2011,08,31,13,46,773.10
2011,08,31,13,47,781.20
2011,08,31,13,48,791.80
2011,08,31,13,49,711.80
2011,08,31,13,50,771.50
2011,08,31,13,51,750.70
2011,08,31,13,52,742.00
2011,08,31,13,53,740.00
2011,08,31,13,54,738.60
2011,08,31,13,55,737.10
2011,08,31,13,56,737.70
2011,08,31,13,57,735.50
2011,08,31,13,58,736.20
2011,08,31,13,59,736.00
2011,08,31,14,00,733.10
2011,08,31,14,01,729.50
2011,08,31,14,02,730.80
2011,08,31,14,03,731.20
2011,08,31,14,04,733.00
2011,08,31,14,05,733.80
2011,08,31,14,06,735.00
2011,08,31,14,07,731.10
2011,08,31,14,08,732.00
2011,08,31,14,09,731.20
2011,08,31,14,10,727.50
2011,08,31,14,11,721.30
2011,08,31,14,12,720.70
2011,08,31,14,13,726.00
2011,08,31,14,14,726.70
2011,08,31,14,15,722.20
2011,08,31,14,16,717.40
2011,08,31,14,17,718.80
2011,08,31,14,18,715.60
2011,08,31,14,19,710.70
2011,08,31,14,20,711.00
2011,08,31,14,21,708.70
2011,08,31,14,22,711.00
2011,08,31,14,23,708.40
2011,08,31,14,24,711.30
2011,08,31,14,25,704.60
2011,08,31,14,26,702.30
2011,08,31,14,27,701.00
2011,08,31,14,28,701.00
2011,08,31,14,29,701.00
2011,08,31,14,30,701.00
2011,08,31,14,31,700.80
2011,08,31,14,32,700.20
2011,08,31,14,33,701.80
2011,08,31,14,34,701.50
2011,08,31,14,35,698.70
2011,08,31,14,36,698.00
2011,08,31,14,37,694.40
2011,08,31,14,38,694.30
2011,08,31,14,39,696.00
2011,08,31,14,40,694.20
2011,08,31,14,41,691.00
2011,08,31,14,42,692.30
2011,08,31,14,43,695.30
2011,08,31,14,44,691.50
2011,08,31,14,45,687.00
2011,08,31,14,46,686.20
2011,08,31,14,47,687.00
2011,08,31,14,48,686.50
2011,08,31,14,49,683.30
2011,08,31,14,50,680.40
2011,08,31,14,51,680.00
2011,08,31,14,52,676.80
2011,08,31,14,53,674.20
2011,08,31,14,54,671.70
2011,08,31,14,55,673.00
2011,08,31,14,56,673.00
2011,08,31,14,57,670.80
2011,08,31,14,58,670.00
2011,08,31,14,59,667.80
2011,08,31,15,00,665.40
2011,08,31,15,01,663.00
2011,08,31,15,02,661.00
2011,08,31,15,03,660.30
2011,08,31,15,04,659.50
2011,08,31,15,05,659.00
2011,08,31,15,06,657.70
2011,08,31,15,07,661.00
2011,08,31,15,08,653.30
2011,08,31,15,09,651.00
2011,08,31,15,10,649.40
2011,08,31,15,11,649.00
2011,08,31,15,12,647.20
2011,08,31,15,13,647.00
2011,08,31,15,14,646.50
2011,08,31,15,15,644.20
2011,08,31,15,16,642.50
2011,08,31,15,17,640.70
2011,08,31,15,18,638.50
2011,08,31,15,19,636.20
2011,08,31,15,20,633.00
2011,08,31,15,21,632.50
2011,08,31,15,22,630.20
2011,08,31,15,23,628.50
2011,08,31,15,24,628.00
2011,08,31,15,25,628.00
2011,08,31,15,26,628.00
2011,08,31,15,27,628.50
2011,08,31,15,28,623.30
2011,08,31,15,29,619.50
2011,08,31,15,30,616.00
2011,08,31,15,31,613.70
2011,08,31,15,32,613.00
2011,08,31,15,33,610.30
2011,08,31,15,34,609.80
2011,08,31,15,35,607.50
2011,08,31,15,36,605.60
2011,08,31,15,37,604.00
2011,08,31,15,38,603.00
2011,08,31,15,39,601.50
2011,08,31,15,40,599.20
2011,08,31,15,41,597.80
2011,08,31,15,42,595.50
2011,08,31,15,43,593.20
2011,08,31,15,44,591.50
2011,08,31,15,45,591.00
2011,08,31,15,46,589.50
2011,08,31,15,47,587.20
2011,08,31,15,48,583.80
2011,08,31,15,49,581.50
2011,08,31,15,50,580.00
2011,08,31,15,51,579.00
2011,08,31,15,52,578.00
2011,08,31,15,53,577.20
2011,08,31,15,54,573.40
2011,08,31,15,55,570.90
2011,08,31,15,56,569.00
2011,08,31,15,57,564.70
2011,08,31,15,58,563.50
2011,08,31,15,59,562.00
2011,08,31,16,00,559.40
2011,08,31,16,01,557.20
2011,08,31,16,02,554.10
2011,08,31,16,03,554.10
2011,08,31,16,04,551.20
2011,08,31,16,05,550.00
2011,08,31,16,06,550.00
2011,08,31,16,07,550.00
2011,08,31,16,08,545.50
2011,08,31,16,09,541.00
2011,08,31,16,10,540.80
2011,08,31,16,11,539.20
2011,08,31,16,12,537.00
2011,08,31,16,13,534.20
2011,08,31,16,14,531.50
2011,08,31,16,15,527.40
2011,08,31,16,16,526.70
2011,08,31,16,17,523.50
2011,08,31,16,18,521.20
2011,08,31,16,19,520.90
2011,08,31,16,20,522.00
2011,08,31,16,21,516.80
2011,08,31,16,22,513.20
2011,08,31,16,23,511.70
2011,08,31,16,24,509.10
2011,08,31,16,25,505.30
2011,08,31,16,26,503.50
2011,08,31,16,27,501.70
2011,08,31,16,28,501.00
2011,08,31,16,29,497.40
2011,08,31,16,30,495.80
2011,08,31,16,31,494.00
2011,08,31,16,32,493.20
2011,08,31,16,33,490.60
2011,08,31,16,34,486.40
2011,08,31,16,35,486.50
2011,08,31,16,36,483.40
2011,08,31,16,37,481.80
2011,08,31,16,38,479.40
2011,08,31,16,39,477.30
2011,08,31,16,40,468.60
2011,08,31,16,41,413.90
2011,08,31,16,42,388.00
2011,08,31,16,43,234.10
2011,08,31,16,44,143.60
2011,08,31,16,45,200.00
2011,08,31,16,46,278.20
2011,08,31,16,47,431.50
2011,08,31,16,48,452.50
2011,08,31,16,49,454.30
2011,08,31,16,50,448.60
2011,08,31,16,51,445.90
2011,08,31,16,52,445.20
2011,08,31,16,53,442.30
2011,08,31,16,54,437.50
2011,08,31,16,55,437.00
2011,08,31,16,56,433.00
2011,08,31,16,57,431.10
2011,08,31,16,58,430.80
2011,08,31,16,59,428.40
2011,08,31,17,00,426.30
2011,08,31,17,01,424.50
2011,08,31,17,02,421.50
2011,08,31,17,03,420.00
2011,08,31,17,04,417.30
2011,08,31,17,05,412.80
2011,08,31,17,06,410.80
2011,08,31,17,07,408.40
2011,08,31,17,08,404.90
2011,08,31,17,09,403.40
2011,08,31,17,10,400.10
2011,08,31,17,11,397.30